Date_and_time,latitude,longitude,wind_speed,RelWindDirFrom,WindDirFrom,air_pressure,air_temperature,relative_humidity,Temp,platform_speed_wrt_ground,air_pressure_at_mean_sea_level,platform_orientation
2019-03-24 23:50,50.6304466666667,-96.9807633333333,8.8,11.0,355,1004.55,-3.2,39,1.39,0.0,1033.25,38.0
2019-03-25 00:00,50.6304483333333,-96.9807633333333,8.3,10.6,353,1004.55,-3.3,38,1.40,0.0,1033.25,360.0
2019-03-25 00:10,50.6304583333333,-96.980765,8.4,10.1,354,1004.56,-3.7,39,1.41,0.0,1033.28,360.0
2019-03-25 00:20,50.6304533333333,-96.9807633333333,7.7,9.8,352,1004.53,-4.0,41,1.42,0.0,1033.26,360.0
2019-03-25 00:30,50.6304483333333,-96.980785,7.0,9.0,348,1004.53,-4.1,42,1.42,0.0,1033.27,360.0
2019-03-25 00:40,50.63045,-96.9807766666667,6.3,8.8,345,1004.53,-4.2,40,1.43,0.0,1033.27,360.0
2019-03-25 00:50,50.6304383333333,-96.980755,7.6,10.0,348,1004.46,-4.3,37,1.43,0.0,1033.21,360.0
2019-03-25 01:00,50.6304416666667,-96.9807633333333,7.5,9.5,347,1004.43,-4.4,36,1.44,0.0,1033.17,234.7
2019-03-25 01:10,50.6304433333333,-96.980765,8.0,10.7,346,1004.45,-4.5,36,1.44,0.0,1033.18,234.7
2019-03-25 01:20,50.6304433333333,-96.980765,7.2,9.1,350,1004.43,-4.7,39,1.44,0.0,1033.17,234.7
2019-03-25 01:30,50.630445,-96.9807666666667,7.4,9.1,347,1004.47,-4.9,40,1.45,0.0,1033.23,234.7
2019-03-25 01:40,50.630445,-96.9807666666667,7.8,9.4,347,1004.53,-4.7,40,1.45,0.0,1033.29,234.7
2019-03-25 01:50,50.630445,-96.98077,7.4,8.8,348,1004.50,-4.8,40,1.46,0.0,1033.27,234.7
2019-03-25 02:00,50.6304516666667,-96.9807883333333,7.3,9.3,350,1004.48,-5.0,41,1.46,0.0,1033.28,287.7
2019-03-25 02:10,50.63045,-96.980775,7.2,8.6,350,1004.52,-5.1,41,1.46,0.0,1033.33,287.7
2019-03-25 02:20,50.6304483333333,-96.9807733333333,7.4,9.0,350,1004.51,-5.1,40,1.46,0.0,1033.33,287.7
2019-03-25 02:30,50.63045,-96.9807716666667,7.6,9.1,352,1004.56,-5.3,42,1.46,0.0,1033.39,287.7
2019-03-25 02:40,50.63044,-96.980775,8.0,10.1,355,1004.60,-5.5,45,1.47,0.0,1033.45,287.7
2019-03-25 02:50,50.6304483333333,-96.9807733333333,8.0,10.3,354,1004.63,-5.7,47,1.47,0.0,1033.51,287.7
2019-03-25 03:00,50.63045,-96.9807783333333,7.9,10.5,352,1004.68,-5.8,47,1.46,0.0,1033.57,293.6
2019-03-25 03:10,50.63045,-96.9807783333333,6.8,9.1,350,1004.79,-6.0,49,1.46,0.0,1033.70,293.6
2019-03-25 03:20,50.63045,-96.9807766666667,5.8,7.4,349,1004.91,-6.2,50,1.46,0.0,1033.85,293.6
2019-03-25 03:30,50.6304516666667,-96.980775,6.5,8.1,345,1004.97,-6.2,49,1.46,0.0,1033.91,293.6
2019-03-25 03:40,50.6304566666667,-96.9807766666667,6.7,8.9,349,1004.99,-6.3,50,1.46,0.0,1033.93,293.6
2019-03-25 03:50,50.6304383333333,-96.9807666666667,7.0,8.8,357,1004.96,-6.7,54,1.45,0.0,1033.94,293.6
2019-03-25 04:00,50.6304416666667,-96.9807666666667,8.5,10.7,3,1004.97,-7.0,56,1.45,0.0,1033.96,0.0
2019-03-25 04:10,50.6304466666667,-96.9807683333333,7.7,9.3,11,1005.01,-8.4,63,1.44,0.0,1034.09,0.0
2019-03-25 04:20,50.63045,-96.9807716666667,7.5,8.7,8,1005.02,-9.6,67,1.43,0.0,1034.17,0.0
2019-03-25 04:30,50.6304483333333,-96.98078,8.4,10.4,7,1005.04,-10.0,68,1.43,0.0,1034.23,0.0
2019-03-25 04:40,50.6304366666667,-96.980775,6.4,7.6,6,1005.05,-10.2,71,1.43,0.0,1034.27,0.0
2019-03-25 04:50,50.6304383333333,-96.9807733333333,6.8,9.6,9,1005.08,-10.1,71,1.43,0.0,1034.29,0.0
2019-03-25 05:00,50.6304416666667,-96.98077,7.4,9.7,8,1005.11,-10.3,71,1.43,0.0,1034.35,125.3
2019-03-25 05:10,50.6304416666667,-96.9807716666667,5.5,6.4,360,1005.19,-10.5,72,1.43,0.0,1034.45,125.3
2019-03-25 05:20,50.6304416666667,-96.98077,4.8,5.8,353,1005.24,-10.1,70,1.42,0.0,1034.48,125.3
2019-03-25 05:30,50.63043,-96.9807783333333,5.1,7.1,0,1005.21,-10.0,70,1.42,0.0,1034.45,125.3
2019-03-25 05:40,50.6304316666667,-96.980765,5.7,6.6,2,1005.22,-10.3,71,1.41,0.0,1034.49,125.3
2019-03-25 05:50,50.6304266666667,-96.98077,4.3,5.4,4,1005.19,-10.3,72,1.41,0.0,1034.48,125.3
2019-03-25 06:00,50.6304366666667,-96.9807733333333,4.5,5.4,14,1005.20,-10.7,74,1.41,0.0,1034.59,176.8
2019-03-25 06:10,50.6304333333333,-96.980775,5.2,5.9,11,1005.20,-11.4,75,1.41,0.0,1034.70,176.8
2019-03-25 06:20,50.6304316666667,-96.9807733333333,5.7,7.7,9,1005.22,-11.4,74,1.41,0.0,1034.75,176.8
2019-03-25 06:30,50.6304433333333,-96.98078,6.0,7.7,10,1005.16,-11.5,73,1.41,0.0,1034.70,176.8
2019-03-25 06:40,50.6304416666667,-96.9807733333333,5.5,6.6,4,1005.13,-11.8,73,1.40,0.0,1034.67,176.8
2019-03-25 06:50,50.6304433333333,-96.9807733333333,4.8,5.9,0,1005.11,-11.7,74,1.39,0.0,1034.67,176.8
2019-03-25 07:00,50.630445,-96.980775,3.2,4.3,358,1005.03,-11.6,73,1.39,0.0,1034.58,270.0
2019-03-25 07:10,50.6304383333333,-96.98078,2.4,3.7,7,1005.04,-11.6,75,1.39,0.0,1034.57,270.0
2019-03-25 07:20,50.6304433333333,-96.98078,1.8,3.1,328,1005.15,-11.7,76,1.38,0.0,1034.69,270.0
2019-03-25 07:30,50.630445,-96.9807766666667,2.4,3.3,326,1005.20,-11.3,70,1.38,0.0,1034.73,270.0
2019-03-25 07:40,50.630445,-96.980775,2.9,3.8,339,1005.17,-11.1,70,1.38,0.0,1034.70,270.0
2019-03-25 07:50,50.630445,-96.980775,1.9,2.9,312,1005.21,-11.0,68,1.38,0.0,1034.75,270.0
2019-03-25 08:00,50.6304433333333,-96.980775,2.8,3.8,307,1005.15,-10.7,67,1.38,0.0,1034.72,270.0
2019-03-25 08:10,50.6304033333333,-96.9807633333333,2.9,3.9,314,1005.12,-10.8,68,1.37,0.0,1034.68,270.0
2019-03-25 08:20,50.6304166666667,-96.9807816666667,3.2,4.5,310,1005.14,-10.9,67,1.37,0.0,1034.72,270.0
2019-03-25 08:30,50.6304216666667,-96.98076,2.8,4.1,310,1005.13,-11.0,66,1.37,0.0,1034.73,270.0
2019-03-25 08:40,50.6304283333333,-96.980775,2.9,4.0,318,1005.07,-11.1,65,1.37,0.0,1034.67,270.0
2019-03-25 08:50,50.630425,-96.98078,3.1,4.1,321,1005.08,-11.2,63,1.36,0.0,1034.68,270.0
2019-03-25 09:00,50.6304216666667,-96.9807816666667,3.8,5.1,316,1005.00,-11.3,63,1.36,0.0,1034.60,212.5
2019-03-25 09:10,50.63042,-96.9807816666667,3.9,4.9,330,1004.97,-11.4,62,1.35,0.0,1034.59,212.5
2019-03-25 09:20,50.63042,-96.98078,3.6,5.0,329,1004.87,-11.5,61,1.36,0.0,1034.47,212.5
2019-03-25 09:30,50.63042,-96.9807783333333,4.3,5.3,336,1004.86,-11.6,59,1.35,0.0,1034.44,212.5
2019-03-25 09:40,50.6304216666667,-96.9807766666667,4.2,5.6,331,1004.86,-11.7,58,1.35,0.0,1034.45,212.5
2019-03-25 09:50,50.6304233333333,-96.9807766666667,4.1,5.3,331,1004.79,-11.7,56,1.35,0.0,1034.36,212.5
2019-03-25 10:00,50.630425,-96.9807766666667,3.7,5.4,321,1004.81,-11.7,56,1.34,0.0,1034.39,142.0
2019-03-25 10:10,50.63044,-96.9807416666667,3.8,5.1,316,1004.80,-11.7,58,1.34,0.0,1034.38,142.0
2019-03-25 10:20,50.6304333333333,-96.9807666666667,4.3,5.8,316,1004.79,-11.7,59,1.35,0.0,1034.37,142.0
2019-03-25 10:30,50.6304366666667,-96.980765,3.5,5.4,311,1004.83,-11.7,60,1.34,0.0,1034.43,142.0
2019-03-25 10:40,50.6304383333333,-96.980765,3.4,5.0,318,1004.92,-11.8,60,1.34,0.0,1034.53,142.0
2019-03-25 10:50,50.63044,-96.9807666666667,3.3,4.7,323,1005.01,-11.8,60,1.34,0.0,1034.63,142.0
2019-03-25 11:00,50.6304383333333,-96.980765,3.4,5.7,324,1005.02,-11.9,61,1.34,0.0,1034.65,90.0
2019-03-25 11:10,50.6304383333333,-96.9807666666667,3.7,5.4,326,1004.94,-12.0,60,1.33,0.0,1034.58,90.0
2019-03-25 11:20,50.6304383333333,-96.9807683333333,3.6,5.0,322,1004.97,-12.1,58,1.32,0.0,1034.61,90.0
2019-03-25 11:30,50.6304316666667,-96.98078,3.7,4.8,316,1004.97,-12.1,56,1.32,0.0,1034.63,90.0
2019-03-25 11:40,50.6304366666667,-96.9807783333333,3.9,5.4,317,1004.89,-12.1,57,1.32,0.0,1034.55,90.0
2019-03-25 11:50,50.630435,-96.9807733333333,3.5,5.1,304,1004.84,-12.1,58,1.32,0.0,1034.49,90.0
2019-03-25 12:00,50.630435,-96.9807733333333,3.4,5.0,307,1004.77,-12.3,61,1.32,0.0,1034.43,32.5
2019-03-25 12:10,50.630435,-96.98077,3.4,5.1,319,1004.70,-12.4,64,1.32,0.0,1034.36,32.5
2019-03-25 12:20,50.6304383333333,-96.9807683333333,3.7,5.1,330,1004.70,-12.5,66,1.32,0.0,1034.37,32.5
2019-03-25 12:30,50.6304383333333,-96.9807683333333,3.9,5.1,333,1004.91,-12.4,67,1.32,0.0,1034.59,32.5
2019-03-25 12:40,50.6304383333333,-96.98077,2.9,4.5,324,1005.00,-12.4,66,1.32,0.0,1034.68,32.5
2019-03-25 12:50,50.6304366666667,-96.9807683333333,2.6,3.4,317,1005.08,-12.3,63,1.32,0.0,1034.76,32.5
2019-03-25 13:00,50.6304383333333,-96.9807683333333,2.5,3.4,321,1005.18,-12.0,62,1.32,0.0,1034.86,23.5
2019-03-25 13:10,50.6304533333333,-96.9807633333333,2.8,3.8,333,1005.18,-11.8,62,1.31,0.0,1034.84,23.5
2019-03-25 13:20,50.6304483333333,-96.9807683333333,1.9,3.0,340,1005.11,-11.6,62,1.31,0.0,1034.76,23.5
2019-03-25 13:30,50.630445,-96.9807633333333,1.3,2.0,338,1005.07,-11.3,60,1.31,0.0,1034.71,23.5
2019-03-25 13:40,50.6304416666667,-96.9807633333333,1.3,2.4,337,1005.15,-11.1,58,1.30,0.0,1034.77,23.5
2019-03-25 13:50,50.63044,-96.980765,1.9,2.9,350,1005.16,-10.6,54,1.30,0.0,1034.76,23.5
2019-03-25 14:00,50.6304383333333,-96.980765,2.7,3.6,9,1005.22,-10.4,57,1.30,0.0,1034.82,0.0
2019-03-25 14:10,50.6304383333333,-96.9807666666667,2.7,3.6,18,1005.14,-10.6,57,1.30,0.0,1034.76,0.0
2019-03-25 14:20,50.6304366666667,-96.9807666666667,2.4,3.4,16,1005.11,-10.5,55,1.28,0.0,1034.72,0.0
2019-03-25 14:30,50.6304366666667,-96.9807666666667,3.2,5.3,13,1005.08,-10.4,54,1.28,0.0,1034.68,0.0
2019-03-25 14:40,50.630435,-96.9807666666667,4.3,5.6,14,1005.05,-10.1,44,1.28,0.0,1034.63,0.0
2019-03-25 14:50,50.6304366666667,-96.9807683333333,4.0,5.1,16,1005.07,-10.1,46,1.28,0.0,1034.63,0.0
2019-03-25 15:00,50.6304366666667,-96.9807683333333,3.9,4.9,18,1005.05,-10.2,49,1.28,0.0,1034.60,90.0
2019-03-25 15:10,50.6304366666667,-96.98077,4.0,4.8,25,1004.99,-10.2,52,1.28,0.0,1034.53,90.0
2019-03-25 15:20,50.6304383333333,-96.98077,3.7,4.5,20,1005.10,-10.1,52,1.28,0.0,1034.62,90.0
2019-03-25 15:30,50.6304516666667,-96.9807733333333,3.9,4.7,27,1005.10,-10.0,50,1.28,0.0,1034.61,90.0
2019-03-25 15:40,50.630445,-96.9807733333333,3.7,4.9,30,1005.05,-9.9,47,1.28,0.0,1034.51,90.0
2019-03-25 15:50,50.6304333333333,-96.9807866666667,3.1,4.0,35,1005.03,-9.7,46,1.28,0.0,1034.47,90.0
2019-03-25 16:00,50.63044,-96.9807783333333,3.1,4.3,49,1005.02,-9.4,46,1.27,0.0,1034.45,270.0
2019-03-25 16:10,50.6304383333333,-96.9807766666667,3.5,4.3,60,1005.04,-9.1,46,1.27,0.0,1034.46,270.0
2019-03-25 16:20,50.6304383333333,-96.9807766666667,3.8,4.6,53,1005.10,-9.1,48,1.28,0.0,1034.51,270.0
2019-03-25 16:30,50.6304316666667,-96.98078,3.8,4.8,57,1005.13,-9.1,50,1.28,0.0,1034.53,270.0
2019-03-25 16:40,50.630435,-96.9807783333333,3.4,4.2,61,1005.11,-8.9,50,1.28,0.0,1034.49,270.0
2019-03-25 16:50,50.6304366666667,-96.980775,3.1,4.1,73,1005.09,-8.2,50,1.28,0.0,1034.43,270.0
2019-03-25 17:00,50.6304383333333,-96.9807766666667,2.5,3.4,75,1005.09,-7.2,49,1.28,0.0,1034.39,270.0
2019-03-25 17:10,50.63041,-96.9807766666667,2.2,3.3,89,1005.06,-6.2,45,1.28,0.0,1034.30,270.0
2019-03-25 17:20,50.63042,-96.9807666666667,2.3,3.5,80,1005.03,-5.6,46,1.28,0.0,1034.22,270.0
2019-03-25 17:30,50.6304216666667,-96.9807733333333,2.8,4.0,82,1005.04,-5.4,46,1.29,0.0,1034.22,270.0
2019-03-25 17:40,50.6304283333333,-96.9807583333333,3.0,3.9,78,1005.02,-5.8,47,1.29,0.0,1034.21,270.0
2019-03-25 17:50,50.63043,-96.9807716666667,2.4,3.6,89,1004.99,-4.9,44,1.30,0.0,1034.11,270.0
2019-03-25 18:00,50.63043,-96.9807716666667,2.8,4.1,89,1004.88,-4.3,46,1.30,0.0,1033.95,194.5
2019-03-25 18:10,50.63043,-96.980775,2.5,3.7,95,1004.87,-3.7,44,1.30,0.0,1033.90,194.5
2019-03-25 18:20,50.6304233333333,-96.980765,3.2,4.2,100,1004.85,-3.9,48,1.30,0.0,1033.89,194.5
2019-03-25 18:30,50.63045,-96.98077,3.5,4.5,100,1004.76,-3.8,48,1.30,0.0,1033.78,194.5
2019-03-25 18:40,50.6304416666667,-96.980775,3.5,4.9,94,1004.67,-3.5,47,1.30,0.0,1033.63,194.5
2019-03-25 18:50,50.6304416666667,-96.9807833333333,3.9,5.0,99,1004.57,-3.2,47,1.31,0.0,1033.46,194.5
2019-03-25 19:00,50.63044,-96.9807833333333,3.8,4.9,105,1004.45,-3.7,48,1.31,0.0,1033.30,0.0
2019-03-25 19:10,50.6304483333333,-96.9807833333333,3.9,5.1,106,1004.24,-3.6,50,1.31,0.0,1033.05,0.0
2019-03-25 19:20,50.6304416666667,-96.9807783333333,4.5,5.5,94,1004.09,-2.9,48,1.31,0.0,1032.85,0.0
2019-03-25 19:30,50.6304383333333,-96.9807766666667,4.7,6.0,96,1003.87,-2.2,47,1.32,0.0,1032.61,0.0
2019-03-25 19:40,50.63044,-96.9807766666667,5.1,6.2,103,1003.74,-2.7,49,1.32,0.0,1032.45,0.0
2019-03-25 19:50,50.63044,-96.980775,5.9,7.0,114,1003.63,-3.7,51,1.32,0.0,1032.36,0.0
2019-03-25 20:00,50.6304333333333,-96.9807533333333,6.1,7.1,109,1003.53,-3.9,50,1.33,0.0,1032.24,130.6
2019-03-25 20:10,50.6304366666667,-96.9807666666667,6.3,7.4,110,1003.43,-3.4,52,1.34,0.0,1032.12,130.6
2019-03-25 20:20,50.630425,-96.980775,6.9,8.1,112,1003.30,-3.4,53,1.35,0.0,1031.99,130.6
2019-03-25 20:30,50.6304383333333,-96.9807716666667,6.7,7.5,105,1003.17,-3.1,50,1.35,0.0,1031.81,130.6
2019-03-25 20:40,50.6304366666667,-96.9807766666667,6.4,7.4,111,1003.12,-2.9,51,1.36,0.0,1031.74,130.6
2019-03-25 20:50,50.630435,-96.9807766666667,6.5,7.7,109,1003.03,-2.7,51,1.37,0.0,1031.66,130.6
2019-03-25 21:00,50.6304366666667,-96.9807766666667,6.4,7.6,113,1002.88,-2.8,53,1.38,0.0,1031.50,360.0
2019-03-25 21:10,50.6304383333333,-96.980775,5.9,7.3,118,1002.77,-2.8,54,1.38,0.0,1031.35,360.0
2019-03-25 21:20,50.63044,-96.980775,5.8,7.1,114,1002.60,-2.7,53,1.39,0.0,1031.14,360.0
2019-03-25 21:30,50.63044,-96.980775,6.2,7.3,107,1002.53,-2.3,51,1.40,0.0,1031.07,360.0
2019-03-25 21:40,50.63044,-96.980775,6.2,7.2,109,1002.47,-2.2,53,1.41,0.0,1031.06,360.0
2019-03-25 21:50,50.63044,-96.9807733333333,6.4,7.4,110,1002.37,-2.3,55,1.42,0.0,1030.97,360.0
2019-03-25 22:00,50.6304416666667,-96.9807733333333,6.7,8.0,113,1002.28,-2.5,57,1.43,0.0,1030.86,90.0
2019-03-25 22:10,50.6304416666667,-96.9807716666667,6.3,7.8,115,1002.17,-2.6,59,1.44,0.0,1030.76,90.0
2019-03-25 22:20,50.6304416666667,-96.9807716666667,5.6,7.7,131,1002.15,-2.9,56,1.45,0.0,1030.74,90.0
2019-03-25 22:30,50.6304416666667,-96.98077,4.3,6.0,132,1002.12,-2.8,61,1.46,0.0,1030.68,90.0
2019-03-25 22:40,50.6304416666667,-96.98077,5.3,7.5,125,1001.93,-2.5,62,1.47,0.0,1030.47,90.0
2019-03-25 22:50,50.6304433333333,-96.98077,6.4,7.9,125,1001.81,-2.8,60,1.48,0.0,1030.36,90.0
2019-03-25 23:00,50.6304433333333,-96.9807716666667,6.7,8.5,115,1001.75,-2.9,61,1.49,0.0,1030.30,304.8
2019-03-25 23:10,50.6304433333333,-96.98077,6.6,7.9,112,1001.65,-3.0,64,1.49,0.0,1030.21,304.8
2019-03-25 23:20,50.630445,-96.98077,6.2,7.8,119,1001.56,-3.1,64,1.50,0.0,1030.10,304.8
2019-03-25 23:30,50.630445,-96.9807683333333,6.5,7.7,120,1001.45,-3.4,62,1.50,0.0,1029.99,304.8
